Time,TemperatureF,DewpointF,PressureIn,WindDirection,WindDirectionDegrees,WindSpeedMPH,WindSpeedGustMPH,Humidity,HourlyPrecipIn,Conditions,Clouds,dailyrainin,SoftwareType,DateUTC
2013-02-10 00:00:00,35.8,24.1,30.31,South,183,0.0,0.0,62,0.00,,---,0.00,VWS V14.01,2013-02-10 05:00:00,
2013-02-10 00:05:00,35.5,23.8,30.32,South,183,0.0,0.0,62,0.00,,---,0.00,VWS V14.01,2013-02-10 05:05:00,
2013-02-10 00:10:00,35.5,23.4,30.32,South,183,0.0,0.0,61,0.00,,---,0.00,VWS V14.01,2013-02-10 05:10:00,
2013-02-10 00:15:00,35.5,23.4,30.32,South,183,0.0,0.0,61,0.00,,---,0.00,VWS V14.01,2013-02-10 05:15:00,
2013-02-10 00:20:00,35.5,24.5,30.30,South,183,0.0,0.0,64,0.00,,---,0.00,VWS V14.01,2013-02-10 05:20:00,
2013-02-10 00:25:00,35.3,24.7,30.30,South,183,0.0,0.0,65,0.00,,---,0.00,VWS V14.01,2013-02-10 05:25:00,
2013-02-10 00:30:00,35.0,24.1,30.30,South,183,0.0,0.0,64,0.00,,---,0.00,VWS V14.01,2013-02-10 05:30:00,
2013-02-10 00:35:00,35.0,24.1,30.31,South,183,0.0,0.0,64,0.00,,---,0.00,VWS V14.01,2013-02-10 05:35:00,
2013-02-10 00:40:00,35.0,23.7,30.31,South,183,0.0,0.0,63,0.00,,---,0.00,VWS V14.01,2013-02-10 05:40:00,
2013-02-10 00:45:00,35.0,23.3,30.31,South,183,0.0,0.0,62,0.00,,---,0.00,VWS V14.01,2013-02-10 05:45:00,
2013-02-10 00:50:00,35.0,23.3,30.31,South,183,0.0,0.0,62,0.00,,---,0.00,VWS V14.01,2013-02-10 05:50:00,
2013-02-10 00:55:00,35.0,22.9,30.31,South,183,0.0,0.0,61,0.00,,---,0.00,VWS V14.01,2013-02-10 05:55:00,
2013-02-10 01:00:00,35.2,22.7,30.31,South,183,0.0,0.0,60,0.00,,---,0.00,VWS V14.01,2013-02-10 06:00:00,
2013-02-10 01:05:00,35.3,22.8,30.31,South,183,0.0,0.0,60,0.00,,---,0.00,VWS V14.01,2013-02-10 06:05:00,
2013-02-10 01:10:00,35.5,23.4,30.31,South,183,0.0,0.0,61,0.00,,---,0.00,VWS V14.01,2013-02-10 06:10:00,
2013-02-10 01:15:00,35.5,22.6,30.31,South,183,0.0,0.0,59,0.00,,---,0.00,VWS V14.01,2013-02-10 06:15:00,
2013-02-10 01:20:00,35.6,23.5,30.30,South,183,0.0,0.0,61,0.00,,---,0.00,VWS V14.01,2013-02-10 06:20:00,
2013-02-10 01:25:00,35.6,23.9,30.30,South,183,0.0,0.0,62,0.00,,---,0.00,VWS V14.01,2013-02-10 06:25:00,
2013-02-10 01:30:00,35.6,24.3,30.30,South,183,0.0,0.0,63,0.00,,---,0.00,VWS V14.01,2013-02-10 06:30:00,
2013-02-10 01:35:00,35.6,23.9,30.30,South,183,0.0,0.0,62,0.00,,---,0.00,VWS V14.01,2013-02-10 06:35:00,
2013-02-10 01:40:00,35.6,24.3,30.30,South,183,0.0,0.0,63,0.00,,---,0.00,VWS V14.01,2013-02-10 06:40:00,
2013-02-10 01:45:00,35.8,23.7,30.30,South,183,0.0,0.0,61,0.00,,---,0.00,VWS V14.01,2013-02-10 06:45:00,
2013-02-10 01:50:00,35.8,23.7,30.30,South,183,0.0,0.0,61,0.00,,---,0.00,VWS V14.01,2013-02-10 06:50:00,
2013-02-10 01:55:00,35.9,24.2,30.30,South,183,0.0,0.0,62,0.00,,---,0.00,VWS V14.01,2013-02-10 06:55:00,
2013-02-10 02:00:00,35.9,23.8,30.30,South,183,0.0,0.0,61,0.00,,---,0.00,VWS V14.01,2013-02-10 07:00:00,
2013-02-10 02:05:00,35.9,23.8,30.29,South,183,0.0,2.0,61,0.00,,---,0.00,VWS V14.01,2013-02-10 07:05:00,
2013-02-10 02:10:00,35.9,23.4,30.29,South,183,0.0,2.0,60,0.00,,---,0.00,VWS V14.01,2013-02-10 07:10:00,
2013-02-10 02:15:00,35.9,23.4,30.29,South,183,0.0,0.0,60,0.00,,---,0.00,VWS V14.01,2013-02-10 07:15:00,
2013-02-10 02:20:00,36.0,24.6,30.29,South,183,0.0,0.0,63,0.00,,---,0.00,VWS V14.01,2013-02-10 07:20:00,
2013-02-10 02:25:00,35.9,24.5,30.29,South,183,0.0,0.0,63,0.00,,---,0.00,VWS V14.01,2013-02-10 07:25:00,
2013-02-10 02:30:00,35.8,25.2,30.29,South,183,0.0,0.0,65,0.00,,---,0.00,VWS V14.01,2013-02-10 07:30:00,
2013-02-10 02:35:00,35.6,25.4,30.29,South,183,0.0,0.0,66,0.00,,---,0.00,VWS V14.01,2013-02-10 07:35:00,
2013-02-10 02:40:00,35.5,25.3,30.29,South,183,0.0,0.0,66,0.00,,---,0.00,VWS V14.01,2013-02-10 07:40:00,
2013-02-10 02:45:00,35.5,24.5,30.29,South,183,0.0,0.0,64,0.00,,---,0.00,VWS V14.01,2013-02-10 07:45:00,
2013-02-10 02:50:00,35.5,22.6,30.29,South,183,0.0,0.0,59,0.00,,---,0.00,VWS V14.01,2013-02-10 07:50:00,
2013-02-10 02:55:00,35.8,22.9,30.29,South,183,0.0,0.0,59,0.00,,---,0.00,VWS V14.01,2013-02-10 07:55:00,
2013-02-10 03:00:00,35.9,24.2,30.29,South,183,0.0,0.0,62,0.00,,---,0.00,VWS V14.01,2013-02-10 08:00:00,
2013-02-10 03:05:00,36.0,24.3,30.29,South,183,0.0,0.0,62,0.00,,---,0.00,VWS V14.01,2013-02-10 08:05:00,
2013-02-10 03:10:00,36.0,24.3,30.29,South,183,0.0,0.0,62,0.00,,---,0.00,VWS V14.01,2013-02-10 08:10:00,
2013-02-10 03:15:00,36.0,24.6,30.29,South,183,0.0,0.0,63,0.00,,---,0.00,VWS V14.01,2013-02-10 08:15:00,
2013-02-10 03:20:00,36.0,24.6,30.28,South,183,0.0,0.0,63,0.00,,---,0.00,VWS V14.01,2013-02-10 08:20:00,
2013-02-10 03:25:00,36.0,24.3,30.28,South,183,0.0,0.0,62,0.00,,---,0.00,VWS V14.01,2013-02-10 08:25:00,
2013-02-10 03:30:00,36.0,24.6,30.28,South,183,0.0,0.0,63,0.00,,---,0.00,VWS V14.01,2013-02-10 08:30:00,
2013-02-10 03:35:00,36.0,23.9,30.28,South,173,0.0,0.0,61,0.00,,---,0.00,VWS V14.01,2013-02-10 08:35:00,
2013-02-10 03:40:00,36.2,23.7,30.28,South,183,0.0,0.0,60,0.00,,---,0.00,VWS V14.01,2013-02-10 08:40:00,
2013-02-10 03:45:00,36.2,23.3,30.28,South,183,0.0,0.0,59,0.00,,---,0.00,VWS V14.01,2013-02-10 08:45:00,
2013-02-10 03:50:00,36.3,24.1,30.28,South,183,0.0,0.0,61,0.00,,---,0.00,VWS V14.01,2013-02-10 08:50:00,
2013-02-10 03:55:00,36.3,22.1,30.28,South,183,0.0,0.0,56,0.00,,---,0.00,VWS V14.01,2013-02-10 08:55:00,
2013-02-10 04:00:00,36.5,23.1,30.28,South,183,0.0,0.0,58,0.00,,---,0.00,VWS V14.01,2013-02-10 09:00:00,
2013-02-10 04:05:00,36.6,22.0,30.28,South,183,0.0,0.0,55,0.00,,---,0.00,VWS V14.01,2013-02-10 09:05:00,
2013-02-10 04:10:00,36.6,22.4,30.28,South,183,0.0,2.0,56,0.00,,---,0.00,VWS V14.01,2013-02-10 09:10:00,
2013-02-10 04:15:00,36.8,21.3,30.28,South,183,0.0,0.0,53,0.00,,---,0.00,VWS V14.01,2013-02-10 09:15:00,
2013-02-10 04:20:00,37.0,21.9,30.28,South,183,0.0,0.0,54,0.00,,---,0.00,VWS V14.01,2013-02-10 09:20:00,
2013-02-10 04:25:00,37.0,24.8,30.28,South,183,0.0,0.0,61,0.00,,---,0.00,VWS V14.01,2013-02-10 09:25:00,
2013-02-10 04:30:00,36.9,24.3,30.28,South,183,0.0,0.0,60,0.00,,---,0.00,VWS V14.01,2013-02-10 09:30:00,
2013-02-10 04:35:00,36.8,25.0,30.27,South,183,0.0,0.0,62,0.00,,---,0.00,VWS V14.01,2013-02-10 09:35:00,
2013-02-10 04:40:00,36.6,25.2,30.27,South,183,0.0,0.0,63,0.00,,---,0.00,VWS V14.01,2013-02-10 09:40:00,
2013-02-10 04:45:00,36.3,24.9,30.27,South,183,0.0,0.0,63,0.00,,---,0.00,VWS V14.01,2013-02-10 09:45:00,
2013-02-10 04:50:00,36.2,24.1,30.28,South,183,0.0,0.0,61,0.00,,---,0.00,VWS V14.01,2013-02-10 09:50:00,
2013-02-10 04:55:00,36.2,23.3,30.28,South,183,0.0,0.0,59,0.00,,---,0.00,VWS V14.01,2013-02-10 09:55:00,
2013-02-10 05:00:00,36.2,24.1,30.28,South,183,0.0,0.0,61,0.00,,---,0.00,VWS V14.01,2013-02-10 10:00:00,
2013-02-10 05:05:00,36.2,22.9,30.29,South,183,0.0,0.0,58,0.00,,---,0.00,VWS V14.01,2013-02-10 10:05:00,
2013-02-10 05:10:00,36.3,23.4,30.29,South,183,0.0,0.0,59,0.00,,---,0.00,VWS V14.01,2013-02-10 10:10:00,
2013-02-10 05:15:00,36.3,24.5,30.29,South,183,0.0,0.0,62,0.00,,---,0.00,VWS V14.01,2013-02-10 10:15:00,
2013-02-10 05:20:00,36.3,24.5,30.30,South,183,0.0,0.0,62,0.00,,---,0.00,VWS V14.01,2013-02-10 10:20:00,
2013-02-10 05:25:00,36.2,22.9,30.30,South,183,0.0,0.0,58,0.00,,---,0.00,VWS V14.01,2013-02-10 10:25:00,
2013-02-10 05:30:00,36.2,22.0,30.30,South,183,0.0,0.0,56,0.00,,---,0.00,VWS V14.01,2013-02-10 10:30:00,
2013-02-10 05:35:00,36.3,21.7,30.31,South,183,0.0,0.0,55,0.00,,---,0.00,VWS V14.01,2013-02-10 10:35:00,
2013-02-10 05:40:00,36.3,21.7,30.31,South,183,0.0,0.0,55,0.00,,---,0.00,VWS V14.01,2013-02-10 10:40:00,
2013-02-10 05:45:00,36.5,21.9,30.31,South,183,0.0,0.0,55,0.00,,---,0.00,VWS V14.01,2013-02-10 10:45:00,
2013-02-10 05:50:00,36.6,22.8,30.32,South,183,0.0,0.0,57,0.00,,---,0.00,VWS V14.01,2013-02-10 10:50:00,
2013-02-10 05:55:00,36.8,24.2,30.32,South,183,0.0,0.0,60,0.00,,---,0.00,VWS V14.01,2013-02-10 10:55:00,
2013-02-10 06:00:00,36.8,23.8,30.32,South,183,0.0,0.0,59,0.00,,---,0.00,VWS V14.01,2013-02-10 11:00:00,
2013-02-10 06:05:00,36.8,24.2,30.32,South,183,0.0,0.0,60,0.00,,---,0.00,VWS V14.01,2013-02-10 11:05:00,
2013-02-10 06:10:00,36.8,20.8,30.32,South,183,0.0,0.0,52,0.00,,---,0.00,VWS V14.01,2013-02-10 11:10:00,
2013-02-10 06:15:00,36.9,21.8,30.32,South,183,0.0,0.0,54,0.00,,---,0.00,VWS V14.01,2013-02-10 11:15:00,
2013-02-10 06:20:00,37.2,21.7,30.35,South,183,0.0,0.0,53,0.00,,---,0.00,VWS V14.01,2013-02-10 11:20:00,
2013-02-10 06:25:00,37.5,21.9,30.35,South,183,0.0,1.0,53,0.00,,---,0.00,VWS V14.01,2013-02-10 11:25:00,
2013-02-10 06:30:00,37.8,25.2,30.35,South,183,0.0,1.0,60,0.00,,---,0.00,VWS V14.01,2013-02-10 11:30:00,
2013-02-10 06:35:00,37.6,25.4,30.34,South,183,0.0,0.0,61,0.00,,---,0.00,VWS V14.01,2013-02-10 11:35:00,
2013-02-10 06:40:00,37.5,25.3,30.34,South,183,0.0,2.0,61,0.00,,---,0.00,VWS V14.01,2013-02-10 11:40:00,
2013-02-10 06:45:00,37.2,25.4,30.34,South,183,0.0,0.0,62,0.00,,---,0.00,VWS V14.01,2013-02-10 11:45:00,
2013-02-10 06:50:00,37.0,24.4,30.35,South,183,0.0,0.0,60,0.00,,---,0.00,VWS V14.01,2013-02-10 11:50:00,
2013-02-10 06:55:00,36.9,23.5,30.35,South,183,0.0,0.0,58,0.00,,---,0.00,VWS V14.01,2013-02-10 11:55:00,
2013-02-10 07:00:00,36.9,23.9,30.35,South,183,0.0,0.0,59,0.00,,---,0.00,VWS V14.01,2013-02-10 12:00:00,
2013-02-10 07:05:00,36.8,23.0,30.36,South,183,0.0,0.0,57,0.00,,---,0.00,VWS V14.01,2013-02-10 12:05:00,
2013-02-10 07:10:00,36.6,22.0,30.36,South,183,0.0,0.0,55,0.00,,---,0.00,VWS V14.01,2013-02-10 12:10:00,
2013-02-10 07:15:00,36.6,21.1,30.36,South,183,0.0,0.0,53,0.00,,---,0.00,VWS V14.01,2013-02-10 12:15:00,
2013-02-10 07:20:00,36.6,22.0,30.37,South,183,0.0,0.0,55,0.00,,---,0.00,VWS V14.01,2013-02-10 12:20:00,
2013-02-10 07:25:00,36.5,23.5,30.37,South,183,0.0,0.0,59,0.00,,---,0.00,VWS V14.01,2013-02-10 12:25:00,
2013-02-10 07:30:00,36.2,23.7,30.37,South,183,0.0,0.0,60,0.00,,---,0.00,VWS V14.01,2013-02-10 12:30:00,
2013-02-10 07:35:00,35.8,23.3,30.37,South,183,0.0,0.0,60,0.00,,---,0.00,VWS V14.01,2013-02-10 12:35:00,
2013-02-10 07:40:00,35.5,23.8,30.37,South,183,0.0,0.0,62,0.00,,---,0.00,VWS V14.01,2013-02-10 12:40:00,
2013-02-10 07:45:00,35.0,23.3,30.37,South,183,0.0,0.0,62,0.00,,---,0.00,VWS V14.01,2013-02-10 12:45:00,
2013-02-10 07:50:00,34.7,23.0,30.37,South,183,0.0,0.0,62,0.00,,---,0.00,VWS V14.01,2013-02-10 12:50:00,
2013-02-10 07:55:00,34.6,21.4,30.37,South,183,0.0,0.0,58,0.00,,---,0.00,VWS V14.01,2013-02-10 12:55:00,
2013-02-10 08:00:00,34.7,23.0,30.37,SE,132,2.0,3.0,62,0.00,,---,0.00,VWS V14.01,2013-02-10 13:00:00,
2013-02-10 08:05:00,35.2,22.7,30.38,SE,132,0.0,2.0,60,0.00,,---,0.00,VWS V14.01,2013-02-10 13:05:00,
2013-02-10 08:10:00,35.9,20.5,30.38,SE,132,1.0,2.0,53,0.00,,---,0.00,VWS V14.01,2013-02-10 13:10:00,
2013-02-10 08:15:00,36.8,21.3,30.38,SE,132,0.0,0.0,53,0.00,,---,0.00,VWS V14.01,2013-02-10 13:15:00,
2013-02-10 08:20:00,37.2,22.1,30.38,SE,127,3.0,5.0,54,0.00,,---,0.00,VWS V14.01,2013-02-10 13:20:00,
2013-02-10 08:25:00,37.9,19.0,30.38,East,86,5.0,6.0,46,0.00,,---,0.00,VWS V14.01,2013-02-10 13:25:00,
2013-02-10 08:30:00,38.3,18.3,30.38,East,89,5.0,6.0,44,0.00,,---,0.00,VWS V14.01,2013-02-10 13:30:00,
2013-02-10 08:35:00,38.8,18.2,30.38,East,89,0.0,5.0,43,0.00,,---,0.00,VWS V14.01,2013-02-10 13:35:00,
2013-02-10 08:40:00,39.1,18.5,30.38,East,89,0.0,5.0,43,0.00,,---,0.00,VWS V14.01,2013-02-10 13:40:00,
2013-02-10 08:45:00,39.3,18.1,30.38,East,89,2.0,3.0,42,0.00,,---,0.00,VWS V14.01,2013-02-10 13:45:00,
2013-02-10 08:50:00,39.5,18.3,30.38,East,87,0.0,6.0,42,0.00,,---,0.00,VWS V14.01,2013-02-10 13:50:00,
2013-02-10 08:55:00,39.6,19.0,30.38,East,87,1.0,3.0,43,0.00,,---,0.00,VWS V14.01,2013-02-10 13:55:00,
2013-02-10 09:00:00,39.8,18.6,30.38,East,87,0.0,3.0,42,0.00,,---,0.00,VWS V14.01,2013-02-10 14:00:00,
2013-02-10 09:05:00,40.1,18.3,30.37,East,87,0.0,1.0,41,0.00,,---,0.00,VWS V14.01,2013-02-10 14:05:00,
2013-02-10 09:10:00,40.2,19.0,30.37,NNE,26,0.0,7.0,42,0.00,,---,0.00,VWS V14.01,2013-02-10 14:10:00,
2013-02-10 09:15:00,40.3,18.5,30.37,ENE,60,1.0,5.0,41,0.00,,---,0.00,VWS V14.01,2013-02-10 14:15:00,
2013-02-10 09:20:00,40.5,18.7,30.38,East,101,0.0,5.0,41,0.00,,---,0.00,VWS V14.01,2013-02-10 14:20:00,
2013-02-10 09:25:00,40.5,18.7,30.38,East,101,0.0,0.0,41,0.00,,---,0.00,VWS V14.01,2013-02-10 14:25:00,
2013-02-10 09:30:00,40.8,18.9,30.38,ESE,103,0.0,3.0,41,0.00,,---,0.00,VWS V14.01,2013-02-10 14:30:00,
2013-02-10 09:35:00,41.1,19.2,30.38,East,90,2.0,6.0,41,0.00,,---,0.00,VWS V14.01,2013-02-10 14:35:00,
2013-02-10 09:40:00,41.3,18.2,30.38,East,90,0.0,6.0,39,0.00,,---,0.00,VWS V14.01,2013-02-10 14:40:00,
2013-02-10 09:45:00,41.6,19.1,30.38,East,86,2.0,5.0,40,0.00,,---,0.00,VWS V14.01,2013-02-10 14:45:00,
2013-02-10 09:49:00,41.8,18.7,30.38,East,87,0.0,5.0,39,0.00,,---,0.00,VWS V14.01,2013-02-10 14:49:00,
2013-02-10 09:54:00,42.1,19.0,30.38,East,87,0.0,1.0,39,0.00,,---,0.00,VWS V14.01,2013-02-10 14:54:00,
2013-02-10 09:59:00,42.3,19.7,30.38,East,87,0.0,3.0,40,0.00,,---,0.00,VWS V14.01,2013-02-10 14:59:00,
2013-02-10 10:04:00,42.6,20.6,30.37,East,87,3.0,3.0,41,0.00,,---,0.00,VWS V14.01,2013-02-10 15:04:00,
2013-02-10 10:09:00,42.6,19.4,30.37,East,96,0.0,5.0,39,0.00,,---,0.00,VWS V14.01,2013-02-10 15:09:00,
2013-02-10 10:14:00,42.5,19.3,30.37,East,89,2.0,5.0,39,0.00,,---,0.00,VWS V14.01,2013-02-10 15:14:00,
2013-02-10 10:19:00,42.3,18.5,30.37,East,91,3.0,8.0,38,0.00,,---,0.00,VWS V14.01,2013-02-10 15:19:00,
2013-02-10 10:24:00,42.1,18.3,30.37,East,89,5.0,5.0,38,0.00,,---,0.00,VWS V14.01,2013-02-10 15:24:00,
2013-02-10 10:29:00,41.9,19.4,30.37,East,83,0.0,6.0,40,0.00,,---,0.00,VWS V14.01,2013-02-10 15:29:00,
2013-02-10 10:34:00,41.9,19.4,30.38,East,83,3.0,6.0,40,0.00,,---,0.00,VWS V14.01,2013-02-10 15:34:00,
2013-02-10 10:39:00,41.9,19.4,30.38,East,83,0.0,6.0,40,0.00,,---,0.00,VWS V14.01,2013-02-10 15:39:00,
2013-02-10 10:44:00,41.9,19.4,30.38,East,84,5.0,5.0,40,0.00,,---,0.00,VWS V14.01,2013-02-10 15:44:00,
2013-02-10 10:49:00,41.8,19.3,30.37,East,90,2.0,5.0,40,0.00,,---,0.00,VWS V14.01,2013-02-10 15:49:00,
2013-02-10 10:54:00,41.9,19.4,30.37,East,91,2.0,5.0,40,0.00,,---,0.00,VWS V14.01,2013-02-10 15:54:00,
2013-02-10 10:59:00,42.1,19.5,30.37,East,91,6.0,6.0,40,0.00,,---,0.00,VWS V14.01,2013-02-10 15:59:00,
2013-02-10 11:04:00,42.1,20.1,30.37,SE,141,0.0,5.0,41,0.00,,---,0.00,VWS V14.01,2013-02-10 16:04:00,
2013-02-10 11:09:00,42.2,20.2,30.37,East,100,1.0,6.0,41,0.00,,---,0.00,VWS V14.01,2013-02-10 16:09:00,
2013-02-10 11:14:00,42.2,20.2,30.37,ESE,110,0.0,3.0,41,0.00,,---,0.00,VWS V14.01,2013-02-10 16:14:00,
2013-02-10 11:19:00,42.2,19.0,30.36,ENE,72,3.0,8.0,39,0.00,,---,0.00,VWS V14.01,2013-02-10 16:19:00,
2013-02-10 11:24:00,42.2,19.6,30.36,ENE,66,0.0,5.0,40,0.00,,---,0.00,VWS V14.01,2013-02-10 16:24:00,
2013-02-10 11:29:00,42.5,21.0,30.36,ENE,66,0.0,5.0,42,0.00,,---,0.00,VWS V14.01,2013-02-10 16:29:00,
2013-02-10 11:34:00,42.6,20.6,30.36,East,87,0.0,6.0,41,0.00,,---,0.00,VWS V14.01,2013-02-10 16:34:00,
2013-02-10 11:39:00,42.6,20.6,30.36,East,86,2.0,6.0,41,0.00,,---,0.00,VWS V14.01,2013-02-10 16:39:00,
2013-02-10 11:44:00,42.6,20.0,30.36,ENE,77,3.0,5.0,40,0.00,,---,0.00,VWS V14.01,2013-02-10 16:44:00,
2013-02-10 11:49:00,42.6,20.0,30.36,ENE,77,0.0,6.0,40,0.00,,---,0.00,VWS V14.01,2013-02-10 16:49:00,
2013-02-10 11:54:00,42.6,20.6,30.36,ENE,72,0.0,3.0,41,0.00,,---,0.00,VWS V14.01,2013-02-10 16:54:00,
2013-02-10 11:59:00,42.8,20.8,30.36,ENE,72,0.0,3.0,41,0.00,,---,0.00,VWS V14.01,2013-02-10 16:59:00,
2013-02-10 12:04:00,43.1,21.6,30.34,East,93,1.0,7.0,42,0.00,,---,0.00,VWS V14.01,2013-02-10 17:04:00,
2013-02-10 12:09:00,43.5,21.4,30.34,East,83,0.0,7.0,41,0.00,,---,0.00,VWS V14.01,2013-02-10 17:09:00,
2013-02-10 12:14:00,44.2,22.6,30.34,East,87,0.0,3.0,42,0.00,,---,0.00,VWS V14.01,2013-02-10 17:14:00,
2013-02-10 12:19:00,44.5,22.3,30.33,East,91,1.0,6.0,41,0.00,,---,0.00,VWS V14.01,2013-02-10 17:19:00,
2013-02-10 12:24:00,44.5,22.3,30.33,East,97,0.0,2.0,41,0.00,,---,0.00,VWS V14.01,2013-02-10 17:24:00,
2013-02-10 12:29:00,44.5,22.3,30.33,East,98,0.0,5.0,41,0.00,,---,0.00,VWS V14.01,2013-02-10 17:29:00,
2013-02-10 12:34:00,44.5,21.7,30.33,East,91,2.0,3.0,40,0.00,,---,0.00,VWS V14.01,2013-02-10 17:34:00,
2013-02-10 12:39:00,44.5,21.7,30.33,ESE,107,2.0,6.0,40,0.00,,---,0.00,VWS V14.01,2013-02-10 17:39:00,
2013-02-10 12:44:00,44.3,22.1,30.33,East,94,2.0,2.0,41,0.00,,---,0.00,VWS V14.01,2013-02-10 17:44:00,
2013-02-10 12:49:00,44.3,22.1,30.32,SE,132,0.0,5.0,41,0.00,,---,0.00,VWS V14.01,2013-02-10 17:49:00,
2013-02-10 12:54:00,44.3,22.7,30.32,East,87,0.0,3.0,42,0.00,,---,0.00,VWS V14.01,2013-02-10 17:54:00,
2013-02-10 12:59:00,44.5,22.9,30.32,East,84,2.0,6.0,42,0.00,,---,0.00,VWS V14.01,2013-02-10 17:59:00,
2013-02-10 13:04:00,44.5,22.9,30.30,East,82,3.0,7.0,42,0.00,,---,0.00,VWS V14.01,2013-02-10 18:04:00,
2013-02-10 13:09:00,44.2,23.1,30.30,East,94,0.0,10.0,43,0.00,,---,0.00,VWS V14.01,2013-02-10 18:09:00,
2013-02-10 13:14:00,44.5,24.5,30.30,East,94,3.0,3.0,45,0.00,,---,0.00,VWS V14.01,2013-02-10 18:14:00,
2013-02-10 13:19:00,44.6,24.0,30.28,East,94,1.0,5.0,44,0.00,,---,0.00,VWS V14.01,2013-02-10 18:19:00,
2013-02-10 13:24:00,44.6,22.9,30.28,East,93,0.0,5.0,42,0.00,,---,0.00,VWS V14.01,2013-02-10 18:24:00,
2013-02-10 13:29:00,44.6,23.5,30.28,SE,135,0.0,6.0,43,0.00,,---,0.00,VWS V14.01,2013-02-10 18:29:00,
2013-02-10 13:34:00,45.1,24.0,30.27,East,93,0.0,1.0,43,0.00,,---,0.00,VWS V14.01,2013-02-10 18:34:00,
2013-02-10 13:39:00,45.2,22.3,30.27,ENE,65,2.0,10.0,40,0.00,,---,0.00,VWS V14.01,2013-02-10 18:39:00,
2013-02-10 13:44:00,45.2,21.7,30.27,SE,127,3.0,7.0,39,0.00,,---,0.00,VWS V14.01,2013-02-10 18:44:00,
2013-02-10 13:49:00,44.9,21.5,30.25,ENE,74,0.0,8.0,39,0.00,,---,0.00,VWS V14.01,2013-02-10 18:49:00,
2013-02-10 13:54:00,45.1,22.2,30.25,ENE,73,0.0,7.0,40,0.00,,---,0.00,VWS V14.01,2013-02-10 18:54:00,
2013-02-10 13:59:00,45.2,21.7,30.25,SE,142,2.0,8.0,39,0.00,,---,0.00,VWS V14.01,2013-02-10 18:59:00,
2013-02-10 14:04:00,45.4,22.5,30.24,East,94,2.0,6.0,40,0.00,,---,0.00,VWS V14.01,2013-02-10 19:04:00,
2013-02-10 14:09:00,45.4,22.5,30.24,East,91,0.0,7.0,40,0.00,,---,0.00,VWS V14.01,2013-02-10 19:09:00,
2013-02-10 14:14:00,45.5,21.4,30.24,East,84,7.0,7.0,38,0.00,,---,0.00,VWS V14.01,2013-02-10 19:14:00,
2013-02-10 14:19:00,45.4,21.9,30.26,East,87,0.0,8.0,39,0.00,,---,0.00,VWS V14.01,2013-02-10 19:19:00,
2013-02-10 14:24:00,45.5,21.4,30.26,East,100,0.0,3.0,38,0.00,,---,0.00,VWS V14.01,2013-02-10 19:24:00,
2013-02-10 14:29:00,45.7,22.2,30.26,NE,50,6.0,6.0,39,0.00,,---,0.00,VWS V14.01,2013-02-10 19:29:00,
2013-02-10 14:34:00,45.8,22.9,30.25,ESE,117,0.0,0.0,40,0.00,,---,0.00,VWS V14.01,2013-02-10 19:34:00,
2013-02-10 14:39:00,46.0,23.0,30.25,SE,138,0.0,5.0,40,0.00,,---,0.00,VWS V14.01,2013-02-10 19:39:00,
2013-02-10 14:44:00,46.2,23.8,30.25,ESE,106,0.0,3.0,41,0.00,,---,0.00,VWS V14.01,2013-02-10 19:44:00,
2013-02-10 14:49:00,46.2,24.4,30.24,East,96,0.0,7.0,42,0.00,,---,0.00,VWS V14.01,2013-02-10 19:49:00,
2013-02-10 14:54:00,46.2,25.0,30.24,ESE,117,0.0,0.0,43,0.00,,---,0.00,VWS V14.01,2013-02-10 19:54:00,
2013-02-10 14:59:00,46.2,24.4,30.24,East,79,0.0,6.0,42,0.00,,---,0.00,VWS V14.01,2013-02-10 19:59:00,
2013-02-10 15:04:00,46.4,25.7,30.24,ESE,120,0.0,3.0,44,0.00,,---,0.00,VWS V14.01,2013-02-10 20:04:00,
2013-02-10 15:09:00,46.4,26.2,30.24,East,86,3.0,6.0,45,0.00,,---,0.00,VWS V14.01,2013-02-10 20:09:00,
2013-02-10 15:14:00,46.1,25.4,30.24,East,97,0.0,6.0,44,0.00,,---,0.00,VWS V14.01,2013-02-10 20:14:00,
2013-02-10 15:19:00,45.8,25.7,30.22,East,101,0.0,6.0,45,0.00,,---,0.00,VWS V14.01,2013-02-10 20:19:00,
2013-02-10 15:24:00,45.5,25.9,30.22,East,89,3.0,6.0,46,0.00,,---,0.00,VWS V14.01,2013-02-10 20:24:00,
2013-02-10 15:29:00,45.4,25.9,30.22,ENE,65,1.0,6.0,46,0.00,,---,0.00,VWS V14.01,2013-02-10 20:29:00,
2013-02-10 15:34:00,45.2,25.7,30.21,East,97,0.0,5.0,46,0.00,,---,0.00,VWS V14.01,2013-02-10 20:34:00,
2013-02-10 15:39:00,45.1,25.6,30.21,ESE,110,0.0,5.0,46,0.00,,---,0.00,VWS V14.01,2013-02-10 20:39:00,
2013-02-10 15:44:00,44.9,25.9,30.21,SE,130,0.0,0.0,47,0.00,,---,0.00,VWS V14.01,2013-02-10 20:44:00,
2013-02-10 15:49:00,44.9,25.9,30.23,ENE,63,0.0,5.0,47,0.00,,---,0.00,VWS V14.01,2013-02-10 20:49:00,
2013-02-10 15:54:00,44.9,25.9,30.23,NE,48,0.0,5.0,47,0.00,,---,0.00,VWS V14.01,2013-02-10 20:54:00,
2013-02-10 15:59:00,44.8,25.3,30.23,ENE,65,0.0,7.0,46,0.00,,---,0.00,VWS V14.01,2013-02-10 20:59:00,
2013-02-10 16:04:00,44.6,25.6,30.22,ESE,103,0.0,3.0,47,0.00,,---,0.00,VWS V14.01,2013-02-10 21:04:00,
2013-02-10 16:09:00,44.6,25.6,30.22,ESE,103,0.0,3.0,47,0.00,,---,0.00,VWS V14.01,2013-02-10 21:09:00,
2013-02-10 16:14:00,44.6,25.6,30.22,ENE,73,0.0,0.0,47,0.00,,---,0.00,VWS V14.01,2013-02-10 21:14:00,
2013-02-10 16:19:00,44.5,25.5,30.24,ENE,73,0.0,0.0,47,0.00,,---,0.00,VWS V14.01,2013-02-10 21:19:00,
2013-02-10 16:24:00,44.5,25.0,30.24,ENE,73,0.0,3.0,46,0.00,,---,0.00,VWS V14.01,2013-02-10 21:24:00,
2013-02-10 16:29:00,44.3,24.8,30.24,ENE,73,0.0,3.0,46,0.00,,---,0.00,VWS V14.01,2013-02-10 21:29:00,
2013-02-10 16:34:00,44.3,24.8,30.24,ENE,73,0.0,3.0,46,0.00,,---,0.00,VWS V14.01,2013-02-10 21:34:00,
2013-02-10 16:39:00,44.2,24.8,30.24,ENE,69,0.0,5.0,46,0.00,,---,0.00,VWS V14.01,2013-02-10 21:39:00,
2013-02-10 16:44:00,44.1,25.2,30.24,ENE,69,0.0,0.0,47,0.00,,---,0.00,VWS V14.01,2013-02-10 21:44:00,
2013-02-10 16:49:00,44.1,25.7,30.22,ENE,58,0.0,3.0,48,0.00,,---,0.00,VWS V14.01,2013-02-10 21:49:00,
2013-02-10 16:54:00,44.1,25.2,30.22,ENE,67,0.0,2.0,47,0.00,,---,0.00,VWS V14.01,2013-02-10 21:54:00,
2013-02-10 16:59:00,44.1,25.7,30.22,ENE,67,0.0,2.0,48,0.00,,---,0.00,VWS V14.01,2013-02-10 21:59:00,
2013-02-10 17:04:00,43.9,26.0,30.22,ENE,67,1.0,3.0,49,0.00,,---,0.00,VWS V14.01,2013-02-10 22:04:00,
2013-02-10 17:09:00,43.9,25.0,30.22,ENE,66,0.0,3.0,47,0.00,,---,0.00,VWS V14.01,2013-02-10 22:09:00,
2013-02-10 17:14:00,43.9,25.5,30.22,ENE,67,0.0,3.0,48,0.00,,---,0.00,VWS V14.01,2013-02-10 22:14:00,
2013-02-10 17:19:00,43.8,25.4,30.21,ENE,58,0.0,3.0,48,0.00,,---,0.00,VWS V14.01,2013-02-10 22:19:00,
2013-02-10 17:24:00,43.8,25.4,30.21,ENE,58,0.0,1.0,48,0.00,,---,0.00,VWS V14.01,2013-02-10 22:24:00,
2013-02-10 17:29:00,43.8,25.9,30.21,ENE,73,0.0,4.0,49,0.00,,---,0.00,VWS V14.01,2013-02-10 22:29:00,
2013-02-10 17:34:00,43.8,26.4,30.22,ENE,74,0.0,3.0,50,0.00,,---,0.00,VWS V14.01,2013-02-10 22:34:00,
2013-02-10 17:39:00,43.8,28.7,30.22,ENE,74,0.0,3.0,55,0.00,,---,0.00,VWS V14.01,2013-02-10 22:39:00,
2013-02-10 17:44:00,43.5,28.4,30.22,ENE,74,0.0,0.0,55,0.00,,---,0.00,VWS V14.01,2013-02-10 22:44:00,
2013-02-10 17:49:00,43.3,28.2,30.23,ENE,74,0.0,0.0,55,0.00,,---,0.00,VWS V14.01,2013-02-10 22:49:00,
2013-02-10 17:54:00,43.3,30.0,30.23,ENE,74,0.0,0.0,59,0.00,,---,0.00,VWS V14.01,2013-02-10 22:54:00,
2013-02-10 17:59:00,43.2,31.1,30.23,ENE,74,0.0,0.0,62,0.00,,---,0.00,VWS V14.01,2013-02-10 22:59:00,
2013-02-10 18:04:00,42.9,32.0,30.22,ENE,74,0.0,0.0,65,0.00,,---,0.00,VWS V14.01,2013-02-10 23:04:00,
2013-02-10 18:09:00,42.6,32.8,30.22,ENE,74,0.0,0.0,68,0.00,,---,0.00,VWS V14.01,2013-02-10 23:09:00,
2013-02-10 18:14:00,42.5,33.4,30.22,ENE,74,0.0,0.0,70,0.00,,---,0.00,VWS V14.01,2013-02-10 23:14:00,
2013-02-10 18:19:00,42.3,33.9,30.22,ENE,74,0.0,0.0,72,0.00,,---,0.00,VWS V14.01,2013-02-10 23:19:00,
2013-02-10 18:24:00,41.8,34.8,30.22,ENE,74,0.0,0.0,76,0.01,,---,0.01,VWS V14.01,2013-02-10 23:24:00,
2013-02-10 18:29:00,41.3,35.0,30.22,ENE,74,0.0,0.0,78,0.01,,---,0.01,VWS V14.01,2013-02-10 23:29:00,
2013-02-10 18:34:00,41.1,35.1,30.23,ENE,74,0.0,0.0,79,0.01,,---,0.01,VWS V14.01,2013-02-10 23:34:00,
2013-02-10 18:39:00,40.6,34.9,30.23,ENE,74,0.0,0.0,80,0.01,,---,0.01,VWS V14.01,2013-02-10 23:39:00,
2013-02-10 18:44:00,40.2,35.2,30.23,ENE,74,0.0,0.0,82,0.02,,---,0.02,VWS V14.01,2013-02-10 23:44:00,
2013-02-10 18:49:00,39.8,34.8,30.24,ENE,74,0.0,1.0,82,0.02,,---,0.02,VWS V14.01,2013-02-10 23:49:00,
2013-02-10 18:54:00,39.5,34.8,30.24,ENE,74,0.0,0.0,83,0.03,,---,0.03,VWS V14.01,2013-02-10 23:54:00,
2013-02-10 18:59:00,39.3,35.2,30.24,ENE,74,0.0,0.0,85,0.03,,---,0.03,VWS V14.01,2013-02-10 23:59:00,
2013-02-10 19:04:00,39.2,35.4,30.23,ENE,74,0.0,0.0,86,0.04,,---,0.04,VWS V14.01,2013-02-11 00:04:00,
2013-02-10 19:09:00,38.9,35.1,30.23,ENE,74,0.0,1.0,86,0.04,,---,0.04,VWS V14.01,2013-02-11 00:09:00,
2013-02-10 19:14:00,38.8,35.3,30.23,ENE,74,0.0,1.0,87,0.05,,---,0.05,VWS V14.01,2013-02-11 00:14:00,
2013-02-10 19:19:00,38.8,35.6,30.23,ENE,74,0.0,1.0,88,0.05,,---,0.05,VWS V14.01,2013-02-11 00:19:00,
2013-02-10 19:24:00,38.6,35.4,30.23,ENE,74,0.0,0.0,88,0.06,,---,0.06,VWS V14.01,2013-02-11 00:24:00,
2013-02-10 19:29:00,38.5,35.3,30.23,ENE,74,0.0,0.0,88,0.06,,---,0.06,VWS V14.01,2013-02-11 00:29:00,
2013-02-10 19:34:00,38.3,35.3,30.24,ENE,74,0.0,0.0,89,0.06,,---,0.07,VWS V14.01,2013-02-11 00:34:00,
2013-02-10 19:39:00,38.3,35.3,30.24,ENE,74,0.0,0.0,89,0.06,,---,0.07,VWS V14.01,2013-02-11 00:39:00,
2013-02-10 19:44:00,38.3,35.3,30.24,ENE,74,0.0,0.0,89,0.05,,---,0.07,VWS V14.01,2013-02-11 00:44:00,
2013-02-10 19:49:00,38.3,35.6,30.25,ENE,74,0.0,0.0,90,0.06,,---,0.08,VWS V14.01,2013-02-11 00:49:00,
2013-02-10 19:54:00,38.3,35.6,30.25,ENE,74,0.0,0.0,90,0.05,,---,0.08,VWS V14.01,2013-02-11 00:54:00,
2013-02-10 19:59:00,38.5,35.8,30.25,ENE,74,0.0,0.0,90,0.06,,---,0.09,VWS V14.01,2013-02-11 00:59:00,
2013-02-10 20:04:00,38.5,36.1,30.25,ENE,74,0.0,0.0,91,0.06,,---,0.09,VWS V14.01,2013-02-11 01:04:00,
2013-02-10 20:09:00,38.5,36.1,30.25,ENE,74,0.0,0.0,91,0.06,,---,0.09,VWS V14.01,2013-02-11 01:09:00,
2013-02-10 20:14:00,38.5,36.1,30.25,ENE,74,0.0,0.0,91,0.05,,---,0.10,VWS V14.01,2013-02-11 01:14:00,
2013-02-10 20:19:00,38.5,36.1,30.25,ENE,74,0.0,0.0,91,0.05,,---,0.10,VWS V14.01,2013-02-11 01:19:00,
2013-02-10 20:24:00,38.6,36.2,30.25,ENE,74,0.0,0.0,91,0.05,,---,0.10,VWS V14.01,2013-02-11 01:24:00,
2013-02-10 20:29:00,38.6,36.5,30.25,ENE,74,0.0,0.0,92,0.06,,---,0.11,VWS V14.01,2013-02-11 01:29:00,
2013-02-10 20:34:00,38.6,36.5,30.25,ENE,74,0.0,0.0,92,0.05,,---,0.11,VWS V14.01,2013-02-11 01:34:00,
2013-02-10 20:39:00,38.8,36.7,30.25,ENE,74,0.0,0.0,92,0.05,,---,0.11,VWS V14.01,2013-02-11 01:39:00,
2013-02-10 20:44:00,38.8,36.7,30.25,ENE,74,0.0,0.0,92,0.05,,---,0.12,VWS V14.01,2013-02-11 01:44:00,
2013-02-10 20:49:00,38.9,36.8,30.27,ENE,74,0.0,0.0,92,0.05,,---,0.12,VWS V14.01,2013-02-11 01:49:00,
2013-02-10 20:54:00,39.1,37.0,30.27,ENE,74,0.0,0.0,92,0.04,,---,0.13,VWS V14.01,2013-02-11 01:54:00,
2013-02-10 20:59:00,39.1,37.0,30.27,ENE,74,0.0,0.0,92,0.05,,---,0.13,VWS V14.01,2013-02-11 01:59:00,
2013-02-10 21:04:00,39.2,37.1,30.27,ENE,74,0.0,0.0,92,0.04,,---,0.13,VWS V14.01,2013-02-11 02:04:00,
2013-02-10 21:09:00,39.3,37.2,30.27,ENE,74,0.0,0.0,92,0.05,,---,0.14,VWS V14.01,2013-02-11 02:09:00,
2013-02-10 21:14:00,39.3,37.2,30.27,ENE,74,0.0,0.0,92,0.05,,---,0.14,VWS V14.01,2013-02-11 02:14:00,
2013-02-10 21:19:00,39.3,37.5,30.24,ENE,74,0.0,0.0,93,0.05,,---,0.14,VWS V14.01,2013-02-11 02:19:00,
2013-02-10 21:24:00,39.3,37.5,30.24,ENE,74,0.0,0.0,93,0.05,,---,0.15,VWS V14.01,2013-02-11 02:24:00,
2013-02-10 21:29:00,39.5,37.7,30.24,ENE,74,0.0,0.0,93,0.05,,---,0.15,VWS V14.01,2013-02-11 02:29:00,
2013-02-10 21:34:00,39.5,37.7,30.23,ENE,74,0.0,0.0,93,0.05,,---,0.16,VWS V14.01,2013-02-11 02:34:00,
2013-02-10 21:39:00,39.6,37.8,30.23,ENE,74,0.0,0.0,93,0.05,,---,0.16,VWS V14.01,2013-02-11 02:39:00,
2013-02-10 21:44:00,39.6,37.8,30.23,ENE,74,0.0,0.0,93,0.05,,---,0.16,VWS V14.01,2013-02-11 02:44:00,
2013-02-10 21:49:00,39.6,37.8,30.22,ENE,74,0.0,0.0,93,0.05,,---,0.16,VWS V14.01,2013-02-11 02:49:00,
2013-02-10 21:54:00,39.9,38.0,30.22,ENE,74,0.0,0.0,93,0.05,,---,0.17,VWS V14.01,2013-02-11 02:54:00,
2013-02-10 21:59:00,40.1,38.5,30.22,ENE,74,0.0,0.0,94,0.05,,---,0.17,VWS V14.01,2013-02-11 02:59:00,
2013-02-10 22:04:00,40.3,38.7,30.20,ENE,74,0.0,0.0,94,0.04,,---,0.17,VWS V14.01,2013-02-11 03:04:00,
2013-02-10 22:09:00,40.5,38.9,30.20,ENE,74,0.0,0.0,94,0.05,,---,0.18,VWS V14.01,2013-02-11 03:09:00,
2013-02-10 22:14:00,40.9,39.3,30.20,NNE,22,0.0,2.0,94,0.04,,---,0.18,VWS V14.01,2013-02-11 03:14:00,
2013-02-10 22:19:00,41.6,40.0,30.18,NNE,24,3.0,7.0,94,0.04,,---,0.18,VWS V14.01,2013-02-11 03:19:00,
2013-02-10 22:24:00,42.1,40.5,30.18,WSW,250,0.0,0.0,94,0.04,,---,0.19,VWS V14.01,2013-02-11 03:24:00,
2013-02-10 22:29:00,42.3,40.7,30.18,North,5,0.0,0.0,94,0.04,,---,0.19,VWS V14.01,2013-02-11 03:29:00,
2013-02-10 22:34:00,42.3,40.7,30.16,North,5,0.0,0.0,94,0.04,,---,0.19,VWS V14.01,2013-02-11 03:34:00,
2013-02-10 22:39:00,42.6,41.0,30.16,North,5,4.0,4.0,94,0.05,,---,0.20,VWS V14.01,2013-02-11 03:39:00,
2013-02-10 22:44:00,43.2,41.9,30.16,North,5,0.0,0.0,95,0.04,,---,0.20,VWS V14.01,2013-02-11 03:44:00,
2013-02-10 22:49:00,43.3,41.7,30.16,NE,38,0.0,5.0,94,0.04,,---,0.20,VWS V14.01,2013-02-11 03:49:00,
2013-02-10 22:54:00,43.5,42.2,30.16,NE,38,0.0,0.0,95,0.03,,---,0.20,VWS V14.01,2013-02-11 03:54:00,
2013-02-10 22:59:00,43.6,42.3,30.16,NE,38,0.0,0.0,95,0.03,,---,0.20,VWS V14.01,2013-02-11 03:59:00,
2013-02-10 23:04:00,43.9,42.6,30.15,NE,38,0.0,0.0,95,0.03,,---,0.20,VWS V14.01,2013-02-11 04:04:00,
2013-02-10 23:09:00,44.2,42.9,30.15,NE,38,0.0,0.0,95,0.03,,---,0.20,VWS V14.01,2013-02-11 04:09:00,
2013-02-10 23:14:00,44.3,43.0,30.15,NE,38,0.0,0.0,95,0.02,,---,0.20,VWS V14.01,2013-02-11 04:14:00,
2013-02-10 23:19:00,44.5,43.2,30.13,NE,38,0.0,3.0,95,0.02,,---,0.20,VWS V14.01,2013-02-11 04:19:00,
2013-02-10 23:24:00,44.8,43.5,30.13,NE,38,0.0,0.0,95,0.01,,---,0.20,VWS V14.01,2013-02-11 04:24:00,
2013-02-10 23:29:00,45.1,43.8,30.13,NNW,336,0.0,0.0,95,0.01,,---,0.20,VWS V14.01,2013-02-11 04:29:00,
2013-02-10 23:34:00,45.4,44.0,30.13,NNE,25,0.0,0.0,95,0.01,,---,0.20,VWS V14.01,2013-02-11 04:34:00,
2013-02-10 23:39:00,45.7,44.3,30.13,NNE,26,0.0,6.0,95,0.01,,---,0.20,VWS V14.01,2013-02-11 04:39:00,
2013-02-10 23:44:00,45.7,44.3,30.13,NNE,25,0.0,0.0,95,0.00,,---,0.20,VWS V14.01,2013-02-11 04:44:00,
2013-02-10 23:49:00,45.8,44.5,30.11,NNE,26,0.0,1.0,95,0.00,,---,0.20,VWS V14.01,2013-02-11 04:49:00,
2013-02-10 23:54:00,46.0,44.7,30.11,NNE,31,1.0,1.0,95,0.00,,---,0.20,VWS V14.01,2013-02-11 04:54:00,
2013-02-10 23:59:00,46.2,44.8,30.11,NNE,31,0.0,5.0,95,0.00,,---,0.20,VWS V14.01,2013-02-11 04:59:00,